Regional Weather Roundup
Issued by NWS

Home | Current Version | Previous Version | Graphics & Text | Print | Product List | Glossary On
Versions: 1 2 3 4 5 6 7 8 9 10 11 12 13 14 15 16 17 18 19 20 21 22 23 24 25 26 27 28 29 30 31 32 33 34 35 36 37 38 39 40 41 42 43 44 45 46 47 48 49 50
000
ASUS43 KLOT 181500
RWRIL

ILLINOIS REGIONAL WEATHER ROUNDUP
NATIONAL WEATHER SERVICE CHICAGO/ROMEOVILLE IL
1000 AM CDT THU SEP 18 2014

NOTE: "FAIR" INDICATES FEW OR NO CLOUDS BELOW 12,000 FEET WITH NO
SIGNIFICANT WEATHER AND/OR OBSTRUCTIONS TO VISIBILITY.

* THESE STATIONS ARE NOT UNDER NWS QUALITY CONTROL. THEY ALSO MAY NOT
  REPORT WEATHER SUCH AS PRECIPITATION OR FOG.

ILZ001-002-007-009-015-016-024-181600-
NORTHWEST ILLINOIS

CITY           SKY/WX    TMP DP  RH WIND       PRES   REMARKS
MOLINE         SUNNY     64  52  64 E5        30.13R
STERLING*      SUNNY     63  52  67 E9        30.15R
$$

ILZ003-004-008-010-011-017-018-181600-
NORTH CENTRAL ILLINOIS

CITY           SKY/WX    TMP DP  RH WIND       PRES   REMARKS
ROCKFORD       CLOUDY    54  51  90 E8        30.20R FOG
FREEPORT*      SUNNY     57  54  88 E8        30.19R
ROCHELLE*      SUNNY     60  51  72 NE7       30.17R
$$

ILZ005-006-012>014-019>023-181600-
NORTHEAST ILLINOIS

CITY           SKY/WX    TMP DP  RH WIND       PRES   REMARKS
CHICAGO-OHARE  MOSUNNY   62  55  77 NE9       30.15S
CHICAGO-MIDWAY PTSUNNY   65  56  72 CALM      30.15S
AURORA         CLOUDY    59  54  83 N6        30.17R HAZE
LANSING*       SUNNY     62  51  68 CALM      30.16S
WAUKEGAN       CLOUDY    60  54  80 N13       30.15R
DUPAGE AIRPORT CLOUDY    60  55  83 NE3       30.15S
WHEELING       CLOUDY    63  55  75 N9        30.17S
NORTHERLY ISL    N/A     64  56  75 N6          N/A
$$

LMZ740>746-181600-
SOUTHERN LAKE MICHIGAN

STATION/POSITION SKY/WX   TEMP    WIND        PRES    VSBY  WAVE
                          AIR SEA DIR/SP/G                  HT/PER
                          (F)     (DEG/KT/KT) (MB)    (MI)  (FT/S)
SOUTHERN BUOY              61 62   CALM  /  2 1020.4R         2/ 5
WAUKEGAN HARBOR            59      10/ 14/ 17   N/A
HARRISON CRIB              60     320/  4/  5   N/A
BURNHAM HARBOR             64     360/  5/  7   N/A
CALUMET HARBOR             63      10/  5/  6 1019.7R
MICHIGAN CITY              58      80/  7/  9   N/A
MICHIGAN CITY 6N           60 64  120/  4/  6   N/A           1
ST. JOSEPH                 60 66  150/  6/ 10   N/A           0
$$

ILZ025>027-034>036-040-047-049-050-058-095>099-181600-
WEST-CENTRAL ILLINOIS

CITY           SKY/WX    TMP DP  RH WIND       PRES   REMARKS
QUINCY         SUNNY     61  52  72 E10       30.09S
GALESBURG*     SUNNY     67  57  70 E5        30.11S
MACOMB*        SUNNY     64  55  74 E6        30.13R
$$

ILZ028>032-037-038-041>044-048-051>054-059>061-181600-
CENTRAL ILLINOIS

CITY           SKY/WX    TMP DP  RH WIND       PRES   REMARKS
DECATUR        MOSUNNY   66  53  63 E10       30.11R
PEORIA         SUNNY     66  54  65 NE7       30.12R
SPRINGFIELD    SUNNY     65  55  70 E5        30.11S
TAYLORVILLE    NOT AVBL
$$

ILZ033-039-045-046-055>057-062-063-181600-
EAST-CENTRAL ILLINOIS

CITY           SKY/WX    TMP DP  RH WIND       PRES   REMARKS
CHAMPAIGN      SUNNY     66  50  56 E10       30.12R
MATTOON        MOSUNNY   64  53  67 E8        30.10R
$$

ILZ079-100>102-181600-
SOUTHWEST ILLINOIS

CITY           SKY/WX    TMP DP  RH WIND       PRES   REMARKS
ALTON          CLOUDY    63  54  72 E12       30.09R
BELLEVILLE     CLOUDY    64  55  71 NE9       30.08R
CAHOKIA*       CLOUDY    65  56  72 E6        30.08R
SPARTA*        CLOUDY    65  55  72 E9        30.08R
$$

ILZ064>066-069>071-074>076-080>082-084>086-088>090-092>094-181600-
SOUTH-CENTRAL ILLINOIS

CITY           SKY/WX    TMP DP  RH WIND       PRES   REMARKS
CARBONDALE     CLOUDY    65  57  75 E7        30.06R
MT. VERNON     PTSUNNY   64  54  68 E8        30.08S
SALEM*         PTSUNNY   66  55  69 E8        30.08S
$$

ILZ067-068-072-073-078-083-087-091-181600-
SOUTHEAST ILLINOIS

CITY           SKY/WX    TMP DP  RH WIND       PRES   REMARKS
LAWRENCEVILLE  MOSUNNY   65  55  70 NE7       30.09S
ROBINSON*      MOSUNNY   66  60  81 CALM      30.10S
$$

ABBREVIATIONS USED IN REMARKS
   TC - TEMPERATURE IN CELSIUS
  WCI - WIND CHILL INDEX
   HX - HEAT INDEX
  VSB - VISIBILITY
$$




USA.gov is the U.S. government's official web portal to all federal, state and local government web resources and services.